Location: Banksville Park
(38.5557°N, 75.1182°W)
Time: 09:36:30
(UTC+00:00)

CENTAUR R/B - Visible Passes

Search period start: 17 January 2021 00:00
Search period end: 27 January 2021 00:00
Orbit: 750 x 1438 km, 63.4° (Epoch: 11 January)

Date Brightness Start Highest point End Pass type
(mag) Time Alt. Az. Time Alt. Az. Time Alt. Az.
17 Jan 5.3 11:22:20 10° SSE 11:26:27 21° ESE 11:31:01 10° ENE visible
17 Jan 4.9 22:33:21 10° NW 22:41:03 40° WSW 22:49:05 10° S visible
18 Jan 6.5 23:39:46 10° W 23:42:26 12° WSW 23:45:08 10° WSW visible
19 Jan 3.7 11:34:35 10° S 11:39:54 46° ESE 11:46:06 10° NE visible
19 Jan 6.0 22:48:36 10° WNW 22:54:40 22° WSW 23:00:54 10° SSW visible
20 Jan 4.8 10:47:36 10° SSE 10:52:04 24° ESE 10:57:04 10° NE visible
21 Jan 5.4 10:02:16 10° SE 10:04:24 12° ESE 10:06:39 10° E visible
22 Jan 3.3 11:00:09 10° S 11:05:34 53° ESE 11:11:57 10° NE visible
23 Jan 4.3 10:12:58 10° SSE 10:17:41 28° ESE 10:23:03 10° NE visible
24 Jan 5.1 09:27:01 10° SE 09:30:00 15° ESE 09:33:11 10° ENE visible
24 Jan 2.4 11:13:46 10° SW 11:19:27 77° NW 11:26:14 10° NNE visible
25 Jan 2.9 10:25:45 10° SSW 10:31:16 61° ESE 10:37:47 10° NE visible
26 Jan 3.9 09:38:22 10° S 09:43:20 33° ESE 09:48:59 10° NE visible
26 Jan 2.9 11:28:13 10° WSW 11:33:43 41° NW 11:40:11 10° NNE visible
